Regional Weather Roundup
Issued by NWS

Home | Current Version | Previous Version | Graphics & Text | Print | Product List | Glossary On
Versions: 1 2 3 4 5 6 7 8 9 10 11 12 13 14 15 16 17 18 19 20 21 22 23 24 25 26 27 28 29 30 31 32 33 34 35 36 37 38 39 40 41 42 43 44 45 46 47 48 49 50
000
ASUS43 KIND 252359
RWRIN

WEATHER ROUNDUP FOR INDIANA
NATIONAL WEATHER SERVICE INDIANAPOLIS IN
800 PM EDT TUE APR 25 2017

NOTE: "FAIR" INDICATES FEW OR NO CLOUDS BELOW 12,000 FEET WITH NO
SIGNIFICANT WEATHER AND/OR OBSTRUCTIONS TO VISIBILITY.

* - STATION DOES NOT REPORT WEATHER SUCH AS PRECIPITATION OR FOG.

+ - STATION NOT QUALITY CONTROLLED BY THE NATIONAL WEATHER SERVICE.
    USE DATA WITH CAUTION...ESPECIALLY DEWPOINT AND RELATIVE
    HUMIDITY OBSERVATIONS.

INZ001>003-010>013-019-020-260100-
NORTHWEST INDIANA

CITY           SKY/WX    TMP DP  RH WIND       PRES   REMARKS
GARY /AIRPORT/ MOCLDY    77  46  33 SE16G30   29.55F
KNOX *+        CLOUDY    72  27  18 SE16      29.58F
MICHIGAN CITY+ MOCLDY    73  52  46 SE7       29.58F
MONTICELLO +   CLOUDY    74  51  45 S8        29.58F
6HR MIN TEMP:  73; 6HR MAX TEMP:  78;

RENSSELAER +   CLOUDY    73  50  43 SE15      29.57S

$$

LMZ046-743>745-260100-
SOUTHERN LAKE MICHIGAN

STATION/POSITION TIME  TEMP    WIND        PRES    WAVE
                       AIR SEA DIR/SP/G            HT
                 (UTC) (F)     (DEG/KT/KT) (MB)    (FT)
BURNS HARBOR     2340   76     140/ 13/ 19 1001.4F
MICHIGAN CITY    2330   74     130/ 13/ 16   N/A

$$

INZ004-005-014>016-021>024-260100-
NORTH CENTRAL INDIANA

CITY           SKY/WX    TMP DP  RH WIND       PRES   REMARKS
ELKHART        CLOUDY    72  54  53 SE9       29.62S
GOSHEN         PTCLDY    72  53  51 S9        29.62F
6HR MIN TEMP:  69; 6HR MAX TEMP:  74;

SOUTH BEND     MOCLDY    72  54  53 SE14G22   29.61F
WARSAW +       CLEAR     72  54  53 SE3       29.63S

$$

INZ006>009-017-018-025>027-260100-
NORTHEAST INDIANA

CITY           SKY/WX    TMP DP  RH WIND       PRES   REMARKS
ANGOLA *+      CLEAR     72  63  73 SE9       29.64F
AUBURN +       CLEAR     72  52  49 SE5       29.65S
FORT WAYNE     MOCLDY    73  53  49 SE9       29.64S
6HR MIN TEMP:  70; 6HR MAX TEMP:  76;

HUNTINGTON +   CLEAR     73  53  50 S7        29.63S
6HR MIN TEMP:  70; 6HR MAX TEMP:  76;

KENDALLVILLE + CLEAR     70  54  57 SE9       29.64F

$$

INZ028-029-035-036-043>045-051>053-260100-
WEST CENTRAL INDIANA

CITY           SKY/WX    TMP DP  RH WIND       PRES   REMARKS
CRAWFORDSVL +  CLOUDY    72  53  51 SE17G24   29.60F
6HR MIN TEMP:  72; 6HR MAX TEMP:  76;

GREENCASTLE +  CLOUDY    72  52  49 SE14      29.61F
LAFAYETTE      CLOUDY    74  54  49 SE9       29.57F
6HR MIN TEMP:  73; 6HR MAX TEMP:  76;

TERRE HAUTE    CLEAR     73  53  49 S10       29.58F
6HR MIN TEMP:  73; 6HR MAX TEMP:  78;


$$

INZ030>032-037>040-046>048-054>057-064-065-260100-
CENTRAL INDIANA

CITY           SKY/WX    TMP DP  RH WIND       PRES   REMARKS
CP ATTERBURY + CLEAR     70  54  56 SE7       29.66R
COLUMBUS       CLEAR     70  50  49 S12       29.66S
FRANKFORT +    CLOUDY    76  55  48 S13       29.63F
6HR MIN TEMP:  76; 6HR MAX TEMP:  81;

GREENWOOD *+   CLEAR     73  53  50 S10       29.65S
6HR MIN TEMP:  71; 6HR MAX TEMP:  77;

INDIANAPOLIS   CLOUDY    72  55  55 SE13      29.62S
6HR MIN TEMP:  71; 6HR MAX TEMP:  76;

-EAGLE CREEK   PTCLDY    74  54  49 SE9G22    29.62F
6HR MIN TEMP:  72; 6HR MAX TEMP:  76;

KOKOMO +       PTCLDY    72  56  57 S13       29.63F
6HR MIN TEMP:  72; 6HR MAX TEMP:  76;

SHELBYVILLE    CLEAR     74  54  49 S10       29.65R
6HR MIN TEMP:  73; 6HR MAX TEMP:  78;


$$

INZ033-034-041-042-049-050-058-059-260100-
EAST CENTRAL INDIANA

CITY           SKY/WX    TMP DP  RH WIND       PRES   REMARKS
MUNCIE         CLEAR     74  54  49 S9        29.64F
6HR MIN TEMP:  72; 6HR MAX TEMP:  77;

RICHMOND +     CLEAR     70  54  56 SE9       29.68F

$$

INZ060-061-067>069-081>083-085>088-260100-
SOUTHWEST INDIANA

CITY           SKY/WX    TMP DP  RH WIND       PRES   REMARKS
EVANSVILLE     PTCLDY    75  57  53 S8        29.62S
HUNTINGBURG *+ PTCLDY    73  56  54 S8        29.63F
6HR MIN TEMP:  73; 6HR MAX TEMP:  77;


$$

INZ062-063-066-070>080-084-089>092-260100-
SOUTH CENTRAL AND SOUTHEAST INDIANA

CITY           SKY/WX    TMP DP  RH WIND       PRES   REMARKS
BLOOMINGTON    MOCLDY    74  54  49 SE8       29.62F
6HR MIN TEMP:  74; 6HR MAX TEMP:  78;

MADISON *+     CLEAR     70  54  56 S3        29.69F
SEYMOUR +      CLEAR     72  55  56 SE6       29.66S

$$





USA.gov is the U.S. government's official web portal to all federal, state and local government web resources and services.